911  
ASUS44 KMOB 200912  
RWRMOB  
REGIONAL WEATHER ROUNDUP  
NATIONAL WEATHER SERVICE MOBILE AL  
300 AM CST TUE FEB 20 2018  
 
NOTE: "FAIR" INDICATES FEW OR NO CLOUDS BELOW 12,000 FEET WITH NO  
SIGNIFICANT WEATHER AND/OR S TO VISIBILITY
.  
 
* THESE STATIONS ARE PART OF THE UNIVERSITY OF SOUTH ALABAMA  
MESONET AND ARE NOT UNDER NWS OR FAA QUALITY CONTROL.
 
 
ALZ061>064-201000-  
COASTAL ALABAMA  
 
CITY SKY/WX TMP DP RH WIND PRES REMARKS
 
MOBILE REG APT CLOUDY 68 66 93 SE5 30.20F  
BROOKLEY FIELD MOCLDY 65 65 100 SE3 30.21F FOG  
USA CAMPUS* NOT AVBL  
DOG RIVER* NOT AVBL  
 
 
CITY SKY/WX TMP DP RH WIND PRES REMARKS
 
GULF SHORES MOCLDY 67 67 100 E6 30.20F  
 

 
 
ALZ051>060-201000-  
INTERIOR SOUTHWEST AND SOUTH CENTRAL ALABAMA  
 
CITY SKY/WX TMP DP RH WIND PRES REMARKS
 
GREENVILLE FAIR 61 57 87 CALM 30.23S  
EVERGREEN FOG 57 55 93 CALM 30.24S VSB 1/2  
ATMORE* N/A N/A N/A N/A SE5 31.01S  
ANDALUSIA/OPP MOCLDY 62 58 86 E3 30.23F  
ANDALUSIA* NOT AVBL  
FLORALA APT NOT AVBL  
FLORALA* NOT AVBL  
 

 
 
FLZ001>006-201000-  
WESTERN FLORIDA PANHANDLE  
 
CITY SKY/WX TMP DP RH WIND PRES REMARKS
 
PENSACOLA MOCLDY 69 66 90 E8 30.21S  
NAS PENSACOLA CLOUDY 68 66 93 MISG 30.20F FOG  
MILTON FOG 60 60 100 CALM 30.21F VSB 1/2  
WHTNG S FIELD NOT AVBL  
 
 
CITY SKY/WX TMP DP RH WIND PRES REMARKS
 
JAY* NOT AVBL  
DUKE FIELD FAIR 64 61 91 E3 30.23S  
CRESTVIEW CLOUDY 59 57 93 CALM 30.24F  
VALPARAISO MOCLDY 67 64 89 E9 30.22S  
DESTIN MOCLDY 70 62 76 E8 30.23S  
 

 
 
MSZ076-079-201000-  
INTERIOR SOUTHEAST MISSISSIPPI  
 
CITY SKY/WX TMP DP RH WIND PRES REMARKS
 
LEAKESVILLE* N/A 66 66 100 CALM 30.20F  
AGRICOLA* N/A 66 64 94 CALM 30.18F  
 

 
 
MARINE OBSERVATIONS  
 
STATION/POSITION TIME TEMP WIND PRES WAVE
 
AIR SEA DIR/SP/G HT/PER  
(UTC) (F) (DEG/KT/KT) (MB) (FT/S)  
PETIT BOIS ISLND 0848 67 110/ 9/ 11 1022.6F  
KATRINA CUT 0830 120/ 12 1022.0F  
CEDAR POINT 0830 67 130/ 8 1022.7F  
E DAUPHIN ISLAND 0900 68 120/ 12/ 13 1022.1F  
MIDDLE BAY LIGHT 0830 68 110/ 12 1022.4S  
USCG MOBILE BAY 0848 65 64 140/ 2/ 4 1022.6F  
STATE DOCKS 0848 66 59 1022.5F  
MEAHER PARK 0830 68 120/ 8 1022.4F  
WEEKS BAY 0745 67 1023.0S  
FORT MORGAN 0848 69 130/ 16/ 17 N/A  
12 S ORANGE BCH NOT AVBL  
PENSACOLA BAY 0848 69 70 120/ 1/ 3 1023.1F  
64 S DAUPHIN ISL 0850 71 110/ 12/ 14 1021.7F 5/ 8  
67 S FORT MORGAN 0830 71 1021.7S  
 

 
 
SELECTED LOCATIONS ACROSS THE REGION  
 
CITY SKY/WX TMP DP RH WIND PRES REMARKS
 
NEW ORLEANS FAIR 70 68 93 SE10 30.12F  
GULFPORT CLOUDY 69 68 96 E12 30.16F  
PASCAGOULA AP FAIR 68 65 90 SE8 30.18F  
PASCAGOULA* NOT AVBL  
HATTIESBURG FAIR 62 62 100 CALM 30.18F FOG  
LAUREL FAIR 65 64 97 SE7 30.18F  
MERIDIAN MOCLDY 67 64 90 S7 30.19F  
JACKSON CLOUDY 68 65 90 S10 30.12F  
MONTGOMERY FAIR 60 59 96 NE3 30.26R  
TROY FAIR 60 56 86 SE3 30.26S  
ASHFORD* NOT AVBL  
DOTHAN FAIR 62 59 90 E5 30.30S  
PANAMA CITY FAIR 63 59 87 NE6 30.23S  
 

 
 
 
 
CLICK HERE TO GO TO PREVIOUS BULLETINS.

The Nexlab AL Page
The Nexlab FL Page
The Nexlab MS Page Main Text Page